Time,TemperatureF,DewpointF,PressureIn,WindDirection,WindDirectionDegrees,WindSpeedMPH,WindSpeedGustMPH,Humidity,HourlyPrecipIn,Conditions,Clouds,dailyrainin,SoftwareType,DateUTC
2013-02-20 00:01:00,38.3,21.3,29.93,North,359,2.0,5.0,50,0.00,,CLR,0.19,VWS V14.00,2013-02-20 05:01:00,
2013-02-20 00:16:00,38.3,19.9,29.93,North,359,2.0,6.0,47,0.00,,CLR,0.00,VWS V14.00,2013-02-20 05:16:00,
2013-02-20 00:31:00,38.2,19.3,29.93,North,0,0.0,6.0,46,0.00,,CLR,0.00,VWS V14.00,2013-02-20 05:31:00,
2013-02-20 00:46:00,37.6,18.2,29.94,North,0,1.0,6.0,45,0.00,,CLR,0.00,VWS V14.00,2013-02-20 05:46:00,
2013-02-20 01:01:00,37.9,18.0,29.94,North,0,0.0,6.0,44,0.00,,CLR,0.00,VWS V14.00,2013-02-20 06:01:00,
2013-02-20 01:16:00,37.9,17.4,29.95,North,0,5.0,12.0,43,0.00,,CLR,0.00,VWS V14.00,2013-02-20 06:16:00,
2013-02-20 01:31:00,38.8,16.6,29.96,North,0,4.0,8.0,40,0.00,,CLR,0.00,VWS V14.00,2013-02-20 06:31:00,
2013-02-20 01:46:00,38.2,16.6,29.96,North,0,2.0,8.0,41,0.00,,CLR,0.00,VWS V14.00,2013-02-20 06:46:00,
2013-02-20 02:01:00,37.6,17.7,29.96,North,0,1.0,6.0,44,0.00,,CLR,0.00,VWS V14.00,2013-02-20 07:01:00,
2013-02-20 02:16:00,36.3,18.0,29.96,North,0,1.0,2.0,47,0.00,,CLR,0.00,VWS V14.00,2013-02-20 07:16:00,
2013-02-20 02:31:00,36.0,17.2,29.95,North,0,0.0,7.0,46,0.00,,CLR,0.00,VWS V14.00,2013-02-20 07:31:00,
2013-02-20 02:46:00,36.3,16.0,29.95,North,0,5.0,7.0,43,0.00,,CLR,0.00,VWS V14.00,2013-02-20 07:46:00,
2013-02-20 03:16:00,35.2,16.5,29.95,North,0,0.0,3.0,46,0.00,,CLR,0.00,VWS V14.00,2013-02-20 08:16:00,
2013-02-20 03:31:00,33.8,17.6,29.96,North,0,1.0,2.0,51,0.00,,CLR,0.00,VWS V14.00,2013-02-20 08:31:00,
2013-02-20 03:46:00,33.1,17.0,29.96,North,0,1.0,2.0,51,0.00,,CLR,0.00,VWS V14.00,2013-02-20 08:46:00,
2013-02-20 04:01:00,33.2,16.1,29.97,North,0,2.0,5.0,49,0.00,,CLR,0.00,VWS V14.00,2013-02-20 09:01:00,
2013-02-20 04:16:00,33.8,15.7,29.96,North,0,6.0,6.0,47,0.00,,CLR,0.00,VWS V14.00,2013-02-20 09:16:00,
2013-02-20 04:31:00,33.8,15.7,29.96,North,0,3.0,7.0,47,0.00,,CLR,0.00,VWS V14.00,2013-02-20 09:31:00,
2013-02-20 04:46:00,33.7,15.6,29.96,North,0,2.0,6.0,47,0.00,,CLR,0.00,VWS V14.00,2013-02-20 09:46:00,
2013-02-20 05:01:00,33.2,15.6,29.97,North,0,0.0,4.0,48,0.00,,CLR,0.00,VWS V14.00,2013-02-20 10:01:00,
2013-02-20 05:16:00,32.5,16.4,29.99,North,0,0.0,2.0,51,0.00,,CLR,0.00,VWS V14.00,2013-02-20 10:16:00,
2013-02-20 05:31:00,31.8,16.2,30.00,North,0,1.0,1.0,52,0.00,,CLR,0.00,VWS V14.00,2013-02-20 10:31:00,
2013-02-20 05:46:00,31.5,16.8,30.00,North,0,0.0,2.0,54,0.00,,CLR,0.00,VWS V14.00,2013-02-20 10:46:00,
2013-02-20 06:01:00,30.6,16.4,30.00,North,0,0.0,0.0,55,0.00,,CLR,0.00,VWS V14.00,2013-02-20 11:01:00,
2013-02-20 06:16:00,29.8,16.8,30.00,North,0,0.0,1.0,58,0.00,,CLR,0.00,VWS V14.00,2013-02-20 11:16:00,
2013-02-20 06:31:00,28.5,18.2,30.00,North,0,0.0,0.0,65,0.00,,CLR,0.00,VWS V14.00,2013-02-20 11:31:00,
2013-02-20 06:46:00,27.3,17.8,30.01,North,0,0.0,0.0,67,0.00,,CLR,0.00,VWS V14.00,2013-02-20 11:46:00,
2013-02-20 07:01:00,26.3,17.9,30.02,North,0,0.0,0.0,70,0.00,,CLR,0.00,VWS V14.00,2013-02-20 12:01:00,
2013-02-20 07:16:00,25.6,18.2,30.03,North,0,0.0,0.0,73,0.00,,CLR,0.00,VWS V14.00,2013-02-20 12:16:00,
2013-02-20 07:31:00,25.7,18.3,30.03,North,0,0.0,0.0,73,0.00,,CLR,0.00,VWS V14.00,2013-02-20 12:31:00,
2013-02-20 07:46:00,27.5,19.0,30.03,North,0,0.0,1.0,70,0.00,,CLR,0.00,VWS V14.00,2013-02-20 12:46:00,
2013-02-20 08:01:00,29.1,18.8,30.03,North,0,0.0,3.0,65,0.00,,CLR,0.00,VWS V14.00,2013-02-20 13:01:00,
2013-02-20 08:16:00,31.3,18.6,30.03,North,0,3.0,4.0,59,0.00,,CLR,0.00,VWS V14.00,2013-02-20 13:16:00,
2013-02-20 08:31:00,33.5,16.9,30.03,North,0,1.0,5.0,50,0.00,,CLR,0.00,VWS V14.00,2013-02-20 13:31:00,
2013-02-20 08:46:00,35.5,16.3,30.02,North,0,5.0,5.0,45,0.00,,CLR,0.00,VWS V14.00,2013-02-20 13:46:00,
2013-02-20 09:01:00,37.5,16.0,30.01,North,0,3.0,7.0,41,0.00,,CLR,0.00,VWS V14.00,2013-02-20 14:01:00,
2013-02-20 09:16:00,38.6,17.0,30.02,North,0,2.0,5.0,41,0.00,,CLR,0.00,VWS V14.00,2013-02-20 14:16:00,
2013-02-20 09:31:00,40.3,14.2,30.02,North,0,0.0,7.0,34,0.00,,CLR,0.00,VWS V14.00,2013-02-20 14:31:00,
2013-02-20 09:46:00,40.8,13.9,30.01,North,0,3.0,11.0,33,0.00,,CLR,0.00,VWS V14.00,2013-02-20 14:46:00,
2013-02-20 10:01:00,41.8,14.1,30.01,North,0,7.0,8.0,32,0.00,,CLR,0.00,VWS V14.00,2013-02-20 15:01:00,
2013-02-20 10:16:00,42.3,13.8,30.02,North,0,4.0,13.0,31,0.00,,CLR,0.00,VWS V14.00,2013-02-20 15:16:00,
2013-02-20 10:31:00,43.2,14.6,30.02,North,0,3.0,8.0,31,0.00,,CLR,0.00,VWS V14.00,2013-02-20 15:31:00,
2013-02-20 10:46:00,44.1,13.1,30.02,North,0,3.0,10.0,28,0.00,,CLR,0.00,VWS V14.00,2013-02-20 15:46:00,
2013-02-20 11:01:00,44.2,10.6,30.02,North,0,8.0,10.0,25,0.00,,CLR,0.00,VWS V14.00,2013-02-20 16:01:00,
2013-02-20 11:16:00,44.1,10.5,30.02,North,0,4.0,11.0,25,0.00,,CLR,0.00,VWS V14.00,2013-02-20 16:16:00,
2013-02-20 11:31:00,44.8,9.3,30.02,North,0,5.0,13.0,23,0.00,,CLR,0.00,VWS V14.00,2013-02-20 16:31:00,
2013-02-20 11:46:00,45.2,10.6,30.02,North,356,4.0,13.0,24,0.00,,CLR,0.00,VWS V14.00,2013-02-20 16:46:00,
2013-02-20 12:01:00,45.7,10.0,30.01,North,0,7.0,10.0,23,0.00,,CLR,0.00,VWS V14.00,2013-02-20 17:01:00,
2013-02-20 12:16:00,46.8,10.0,30.01,North,0,8.0,10.0,22,0.00,,CLR,0.00,VWS V14.00,2013-02-20 17:16:00,
2013-02-20 12:31:00,47.1,10.2,30.00,North,0,7.0,13.0,22,0.00,,CLR,0.00,VWS V14.00,2013-02-20 17:31:00,
2013-02-20 12:46:00,47.3,11.4,29.99,North,357,3.0,11.0,23,0.00,,CLR,0.00,VWS V14.00,2013-02-20 17:46:00,
2013-02-20 13:01:00,48.3,10.2,29.98,North,0,5.0,10.0,21,0.00,,CLR,0.00,VWS V14.00,2013-02-20 18:01:00,
2013-02-20 13:16:00,49.1,12.9,29.97,North,0,3.0,10.0,23,0.00,,CLR,0.00,VWS V14.00,2013-02-20 18:16:00,
2013-02-20 13:31:00,48.5,8.1,29.96,North,0,2.0,14.0,19,0.00,,CLR,0.00,VWS V14.00,2013-02-20 18:31:00,
2013-02-20 13:46:00,49.6,11.3,29.96,NNW,344,7.0,11.0,21,0.00,,CLR,0.00,VWS V14.00,2013-02-20 18:46:00,
2013-02-20 14:01:00,49.9,12.6,29.95,North,0,2.0,8.0,22,0.00,,CLR,0.00,VWS V14.00,2013-02-20 19:01:00,
2013-02-20 14:16:00,50.5,10.9,29.96,North,0,3.0,13.0,20,0.00,,CLR,0.00,VWS V14.00,2013-02-20 19:16:00,
2013-02-20 14:31:00,51.3,12.7,29.95,North,359,2.0,12.0,21,0.00,,CLR,0.00,VWS V14.00,2013-02-20 19:31:00,
2013-02-20 14:46:00,51.1,10.3,29.95,North,359,7.0,11.0,19,0.00,,CLR,0.00,VWS V14.00,2013-02-20 19:46:00,
2013-02-20 15:01:00,51.6,10.7,29.94,North,359,2.0,13.0,19,0.00,,CLR,0.00,VWS V14.00,2013-02-20 20:01:00,
2013-02-20 15:16:00,51.9,9.7,29.94,North,357,5.0,11.0,18,0.00,,CLR,0.00,VWS V14.00,2013-02-20 20:16:00,
2013-02-20 15:31:00,52.0,9.8,29.94,North,357,7.0,11.0,18,0.00,,CLR,0.00,VWS V14.00,2013-02-20 20:31:00,
2013-02-20 15:46:00,52.5,11.4,29.94,North,0,0.0,13.0,19,0.00,,CLR,0.00,VWS V14.00,2013-02-20 20:46:00,
2013-02-20 16:01:00,52.9,7.9,29.94,North,0,7.0,10.0,16,0.00,,CLR,0.00,VWS V14.00,2013-02-20 21:01:00,
2013-02-20 16:16:00,52.5,7.6,29.95,North,0,4.0,9.0,16,0.00,,CLR,0.00,VWS V14.00,2013-02-20 21:16:00,
2013-02-20 16:31:00,52.0,7.2,29.95,North,0,6.0,10.0,16,0.00,,CLR,0.00,VWS V14.00,2013-02-20 21:31:00,
2013-02-20 16:46:00,51.7,8.3,29.96,North,0,1.0,11.0,17,0.00,,CLR,0.00,VWS V14.00,2013-02-20 21:46:00,
2013-02-20 17:01:00,51.4,8.1,29.96,North,0,0.0,8.0,17,0.00,,CLR,0.00,VWS V14.00,2013-02-20 22:01:00,
2013-02-20 17:16:00,51.0,6.4,29.97,North,0,2.0,12.0,16,0.00,,CLR,0.00,VWS V14.00,2013-02-20 22:16:00,
2013-02-20 17:31:00,50.5,9.8,29.98,North,0,1.0,7.0,19,0.00,,CLR,0.00,VWS V14.00,2013-02-20 22:31:00,
2013-02-20 17:46:00,49.8,10.4,29.98,North,0,0.0,4.0,20,0.00,,CLR,0.00,VWS V14.00,2013-02-20 22:46:00,
2013-02-20 18:01:00,48.8,10.6,29.99,North,0,3.0,3.0,21,0.00,,CLR,0.00,VWS V14.00,2013-02-20 23:01:00,
2013-02-20 18:16:00,47.9,9.9,30.01,North,0,0.0,5.0,21,0.00,,CLR,0.00,VWS V14.00,2013-02-20 23:16:00,
2013-02-20 18:31:00,47.0,11.1,30.01,North,0,0.0,2.0,23,0.00,,CLR,0.00,VWS V14.00,2013-02-20 23:31:00,
2013-02-20 18:46:00,45.7,13.6,30.03,North,0,0.0,1.0,27,0.00,,CLR,0.00,VWS V14.00,2013-02-20 23:46:00,
2013-02-20 19:01:00,44.5,11.8,30.03,North,0,0.0,2.0,26,0.00,,CLR,0.00,VWS V14.00,2013-02-21 00:01:00,
2013-02-20 19:16:00,44.1,10.5,30.03,North,0,0.0,2.0,25,0.00,,CLR,0.00,VWS V14.00,2013-02-21 00:16:00,
2013-02-20 19:31:00,43.6,9.2,30.04,North,0,0.0,5.0,24,0.00,,CLR,0.00,VWS V14.00,2013-02-21 00:31:00,
2013-02-20 19:46:00,43.3,8.9,30.04,North,0,1.0,4.0,24,0.00,,CLR,0.00,VWS V14.00,2013-02-21 00:46:00,
2013-02-20 20:01:00,42.9,8.6,30.04,North,0,0.0,1.0,24,0.00,,CLR,0.00,VWS V14.00,2013-02-21 01:01:00,
2013-02-20 20:16:00,41.1,12.0,30.03,North,0,0.0,0.0,30,0.00,,CLR,0.00,VWS V14.00,2013-02-21 01:16:00,
2013-02-20 20:31:00,40.3,12.1,30.05,North,0,0.0,1.0,31,0.00,,CLR,0.00,VWS V14.00,2013-02-21 01:31:00,
2013-02-20 20:46:00,38.8,10.8,30.05,North,0,0.0,3.0,31,0.00,,CLR,0.00,VWS V14.00,2013-02-21 01:46:00,
2013-02-20 21:01:00,39.6,11.5,30.06,North,0,0.0,2.0,31,0.00,,CLR,0.00,VWS V14.00,2013-02-21 02:01:00,
2013-02-20 21:16:00,39.9,11.7,30.06,North,0,0.0,5.0,31,0.00,,CLR,0.00,VWS V14.00,2013-02-21 02:16:00,
2013-02-20 21:31:00,39.5,9.1,30.06,North,0,0.0,2.0,28,0.00,,CLR,0.00,VWS V14.00,2013-02-21 02:31:00,
2013-02-20 21:46:00,39.2,8.9,30.07,North,0,0.0,5.0,28,0.00,,CLR,0.00,VWS V14.00,2013-02-21 02:46:00,
2013-02-20 22:01:00,37.9,10.0,30.07,North,0,0.0,3.0,31,0.00,,CLR,0.00,VWS V14.00,2013-02-21 03:01:00,
2013-02-20 22:16:00,37.3,10.9,30.07,North,0,0.0,5.0,33,0.00,,CLR,0.00,VWS V14.00,2013-02-21 03:16:00,
2013-02-20 22:31:00,36.8,9.7,30.07,North,0,0.0,3.0,32,0.00,,CLR,0.00,VWS V14.00,2013-02-21 03:31:00,
2013-02-20 22:46:00,36.3,10.6,30.07,North,0,0.0,2.0,34,0.00,,CLR,0.00,VWS V14.00,2013-02-21 03:46:00,
2013-02-20 23:01:00,35.9,11.6,30.07,North,0,0.0,3.0,36,0.00,,FEW100,0.00,VWS V14.00,2013-02-21 04:01:00,
2013-02-20 23:16:00,35.9,10.9,30.07,North,0,0.0,3.0,35,0.00,,FEW100,0.00,VWS V14.00,2013-02-21 04:16:00,
2013-02-20 23:31:00,35.3,11.6,30.07,North,0,0.0,5.0,37,0.00,,FEW100,0.00,VWS V14.00,2013-02-21 04:31:00,
2013-02-20 23:46:00,34.9,11.9,30.07,North,0,1.0,1.0,38,0.00,,FEW100,0.00,VWS V14.00,2013-02-21 04:46:00,